Regional Weather Roundup
Issued by NWS

Home | Current Version | Previous Version | Text Only | Print | Product List | Glossary Off
Versions: 1 2 3 4 5 6 7 8 9 10 11 12 13 14 15 16 17 18 19 20 21 22 23 24 25 26 27 28 29 30 31 32 33 34 35 36 37 38 39 40 41 42 43 44 45 46 47 48 49 50

000
ASUS43 KOAX 292110
RWRNE

WEATHER ROUNDUP FOR NEBRASKA
NATIONAL WEATHER SERVICE OMAHA NE
400 PM CDT FRI AUG 29 2014

NOTES: SATELLITE DATA IS BEING USED TO AUGMENT CLOUD COVER ABOVE
       12000 FEET.
       "FAIR" INDICATES FEW OR NO CLOUDS BELOW 12,000 FEET WITH NO
       SIGNIFICANT WEATHER AND/OR OBSTRUCTIONS TO VISIBILITY.

  * THESE STATIONS DO NOT REPORT WEATHER SUCH AS RAIN...SNOW OR FOG.

NEZ001>004-019>022-054>056-292200-
NEBRASKA PANHANDLE

CITY           SKY/WX    TMP DP  RH WIND       PRES   REMARKS
SCOTTSBLUFF    PTSUNNY   79  52  38 VRB3      30.01F
ALLIANCE       MOSUNNY   77  53  43 N16       30.01S
CHADRON        SUNNY     75  57  53 N9        30.00F
KIMBALL        MOSUNNY   77  49  37 N13       30.05F
SIDNEY         MOSUNNY   84  51  31 N13       30.02F
$$

NEZ057>060-069>072-079>082-292200-
SOUTHWEST NEBRASKA

CITY           SKY/WX    TMP DP  RH WIND       PRES   REMARKS
NORTH PLATTE   PTSUNNY   81  54  39 N14       29.87F
IMPERIAL       MOSUNNY   84  53  34 N14       29.93F
LEXINGTON      SUNNY     84  58  41 NW8       29.86R
MCCOOK         SUNNY     87  51  28 N7        29.88F
OGALLALA       MOSUNNY   83  51  32 N8        29.93S
$$

NEZ005>010-023>029-035>040-094-292200-
NORTH CENTRAL NEBRASKA

CITY           SKY/WX    TMP DP  RH WIND       PRES   REMARKS
VALENTINE      SUNNY     82  60  47 N20G28    29.88S
AINSWORTH      PTSUNNY   82  61  49 N13       29.87S
BROKEN BOW     MOSUNNY   82  58  43 N14G22    29.85S
O`NEILL        PTSUNNY   74  69  84 N6        29.84F
ORD            MOSUNNY   79  66  64 NE9       29.83S
THEDFORD       SUNNY     85  54  34 N13G21    29.89F
$$

NEZ041-046>049-061>064-073>077-083>087-292200-
SOUTH CENTRAL NEBRASKA

CITY           SKY/WX    TMP DP  RH WIND       PRES   REMARKS
GRAND ISLAND   TSTM      72  67  84 NW7       29.83F
AURORA         DRIZZLE   72  69  92 CALM      29.82S
HASTINGS       PTSUNNY   78  63  59 VRB3      29.83S
HEBRON         CLOUDY    74  64  73 SW5       29.82F
HOLDREGE       MOSUNNY   81  59  48 NW10      29.85S
KEARNEY *      PTSUNNY   82  61  47 NW14      29.85R
YORK           LGT RAIN  70 N/A N/A SW3       29.82S
$$

NEZ011>018-030>034-042>045-292200-
NORTHEAST NEBRASKA

CITY           SKY/WX    TMP DP  RH WIND       PRES   REMARKS
NORFOLK        CLOUDY    74  66  76 W7        29.79F
ALBION         RAIN      70  66  86 W3        29.82S
BLAIR          HVY RAIN  69  64  84 SW20G25   29.78S
FREMONT        CLOUDY    75  69  80 W8        29.78S
TEKAMAH        CLOUDY    74  69  85 MISG      29.75F
WAYNE          CLOUDY    71  66  84 W3        29.78F
$$

NEZ050>053-065>068-078-088>093-292200-
SOUTHEAST NEBRASKA

CITY           SKY/WX    TMP DP  RH WIND       PRES   REMARKS
LINCOLN        CLOUDY    74  63  68 W8        29.80R
OMAHA EPPLEY   CLOUDY    74  69  85 S12       29.77F
BEATRICE       LGT RAIN  71  68  90 W8        29.80S
FALLS CITY     PTSUNNY   75  70  84 NE5       29.78F
NEBRASKA CITY  MOSUNNY   72  71  96 S5        29.79F
PLATTSMOUTH    PTSUNNY   71  68  89 S8        29.78F
$$

NEZ044-045-051>053-067-292200-
OMAHA AREA

CITY           SKY/WX    TMP DP  RH WIND       PRES   REMARKS
OMAHA EPPLEY   CLOUDY    74  69  85 S12       29.77F
BLAIR          HVY RAIN  69  64  84 SW20G25   29.78S
FREMONT        CLOUDY    75  69  80 W8        29.78S
MILLARD        PTSUNNY   77  69  75 S7        29.76S
OFFUTT AFB     CLOUDY    70  70  99 SW7       29.77F
PLATTSMOUTH    PTSUNNY   71  68  89 S8        29.78F
WAHOO          MOCLDY    74  66  75 W7        29.78F
$$


USA.gov is the U.S. government's official web portal to all federal, state and local government web resources and services.